This demonstration page uses our WeatherBlox Daily Observations layout. Learn more.

Left ArrowRight Arrow

39.92423, -83.80882

Hourly Observations for January 27, 2018

Temp ( °F °C ) Dew Point ( °F °C ) Humidity (%) Winds ( mph kmh ) Pressure ( in mb ) Visibility ( mi km ) Precip ( " mm )
12:56 am 00:56 Clear 46 7.8 23 -5 40 40 SSW 15 24 30.26 1025 10 16 N/A
1:56 am 01:56 Partly Cloudy 46 7.8 22 -5.6 38 38 SSW 17 28 30.25 1024 10 16 N/A
2:56 am 02:56 Mostly Clear 46 7.8 24 -4.4 42 42 SSW 16 26 30.26 1025 10 16 N/A
4:56 am 04:56 Mostly Cloudy 45 7.2 26 -3.3 48 48 SSW 13 20 30.26 1025 10 16 N/A
5:56 am 05:56 Cloudy with Light Rain 44 6.7 29 -1.7 55 55 SSW 10 17 30.27 1025 10 16 N/A
6:56 am 06:56 Cloudy with Light Rain 42 5.6 34 1.1 73 73 SSW 8 13 30.27 1025 10 16 0.01 0.25
7:56 am 07:56 Cloudy 43 6.1 36 2.2 76 76 SSW 13 20 30.25 1025 10 16 N/A
8:35 am 08:35 Cloudy 45 7 37 3 76 76 SSW 13 20 30.27 1025 10 16 N/A
8:56 am 08:56 Cloudy 44 6.7 37 2.8 76 76 SSW 14 22 30.24 1024 10 16 N/A
9:25 am 09:25 Cloudy with Light Rain 43 6 37 3 81 81 SW 8 13 30.27 1025 10 16 N/A
9:56 am 09:56 Cloudy with Light Rain 43 6.1 38 3.3 82 82 SW 5 7 30.25 1025 9 14 0.01 0.25
10:25 am 10:25 Cloudy with Light Rain 43 6 39 4 87 87 WSW 6 9 30.27 1025 8 13 0.02 0.51
10:56 am 10:56 Cloudy with Light Rain 42 5.6 40 4.4 92 92 WSW 3 6 30.26 1025 8 13 0.03 0.76
11:13 am 11:13 Cloudy with Rain 43 6 39 4 87 87 SW 5 7 30.27 1025 5 8 0.02 0.51
11:22 am 11:22 Cloudy with Light Rain 43 6 39 4 87 87 SSW 5 7 30.27 1025 6 10 0.03 0.76
11:33 am 11:33 Cloudy with Light Rain 43 6 39 4 87 87 SSW 5 7 30.27 1025 7 11 0.04 1.02
11:56 am 11:56 Cloudy with Rain 43 6.1 41 5 93 93 SW 7 11 30.24 1024 8 13 0.06 1.52
12:56 pm 12:56 Cloudy with Light Rain 44 6.7 43 6.1 96 96 SW 8 13 30.21 1023 8 13 0.03 0.76
1:25 pm 13:25 Cloudy with Light Rain 45 7 43 6 93 93 WSW 9 15 30.21 1023 5 8 0.01 0.25
1:56 pm 13:56 Cloudy with Light Rain 45 7.2 43 6.1 93 93 SW 9 15 30.19 1023 5 8 0.03 0.76
2:24 pm 14:24 Cloudy with Light Rain 45 7 45 7 100 100 SW 10 17 30.21 1023 7 11 0.01 0.25
2:42 pm 14:42 Cloudy with Light Rain 46 8 45 7 93 93 SW 12 19 30.21 1023 7 11 0.03 0.76
2:56 pm 14:56 Cloudy with Light Rain 46 7.8 45 7.2 96 96 SW 10 17 30.19 1022 7 11 0.04 1.02
3:56 pm 15:56 Cloudy with Rain 47 8.3 46 7.8 97 97 SW 12 19 30.19 1022 7 11 0.12 3.05
4:56 pm 16:56 Cloudy with Light Rain 47 8.3 46 7.8 97 97 SW 10 17 30.19 1023 9 14 0.06 1.52
5:56 pm 17:56 Cloudy with Light Rain 47 8.3 46 7.8 97 97 WSW 9 15 30.21 1023 5 8 0.02 0.51
6:12 pm 18:12 Cloudy with Mist and Fog 46 8 46 8 100 100 WSW 10 17 30.24 1024 4 6 N/A
6:56 pm 18:56 Cloudy with Light Rain 46 7.8 45 7.2 96 96 W 10 17 30.24 1024 4 6 N/A
7:56 pm 19:56 Cloudy 46 7.8 45 7.2 96 96 W 7 11 30.26 1025 9 14 N/A
8:36 pm 20:36 Mostly Cloudy with Mist and Fog 45 7 45 7 100 100 WSW 6 9 30.27 1025 6 10 N/A
8:56 pm 20:56 Clear with Mist and Fog 42 5.6 42 5.6 100 100 WNW 7 11 30.27 1025 3 4 N/A
9:03 pm 21:03 Clear with Mist and Fog 43 6 41 5 93 93 WNW 6 9 30.27 1025 4 6 N/A
9:14 pm 21:14 Clear with Mist and Fog 43 6 43 6 100 100 NW 5 7 30.27 1025 2 3 N/A
9:17 pm 21:17 Clear with Mist and Fog 43 6 43 6 100 100 NW 5 7 30.27 1025 1 1 N/A
9:20 pm 21:20 Mostly Cloudy with Fog 43 6 43 6 100 100 NW 5 7 30.27 1025 1 1 N/A
9:54 pm 21:54 Partly Cloudy with Fog 39 4 39 4 100 100 WNW 5 7 30.30 1026 0 0 N/A
9:56 pm 21:56 Partly Cloudy with Fog 39 3.9 39 3.9 100 100 WNW 5 7 30.27 1025 0 0 N/A
10:22 pm 22:22 Mostly Cloudy with Fog 39 4 39 4 100 100 W 6 9 30.30 1026 0 0 N/A
10:45 pm 22:45 Mostly Cloudy with Fog 39 4 39 4 100 100 W 5 7 30.30 1026 0 0 N/A
10:56 pm 22:56 Mostly Cloudy with Fog 38 3.3 38 3.3 100 100 W 5 7 30.27 1025 0 0 N/A
11:12 pm 23:12 Cloudy with Fog 39 4 37 3 93 93 NW 6 9 30.30 1026 0 0 N/A
11:23 pm 23:23 Cloudy with Mist and Fog 39 4 39 4 100 100 WNW 6 9 30.30 1026 1 1 N/A
11:27 pm 23:27 Cloudy with Mist and Fog 39 4 39 4 100 100 WNW 7 11 30.30 1026 2 2 N/A
11:37 pm 23:37 Cloudy with Mist and Fog 39 4 39 4 100 100 NW 6 9 30.30 1026 2 3 N/A
11:39 pm 23:39 Cloudy with Mist and Fog 39 4 39 4 100 100 WNW 6 9 30.30 1026 2 3 N/A
11:52 pm 23:52 Cloudy with Mist and Fog 39 4 39 4 100 100 WNW 3 6 30.30 1026 1 1 N/A
11:56 pm 23:56 Cloudy with Fog 40 4.4 40 4.4 100 100 WNW 3 6 30.28 1025 1 1 N/A

Powered by AerisWeather